TimeCDT,TemperatureF,Dew PointF,Humidity,Sea Level PressureIn,VisibilityMPH,Wind Direction,Wind SpeedMPH,Gust SpeedMPH,PrecipitationIn,Events,Conditions,WindDirDegrees,DateUTC
12:15 AM,55.4,46.4,72,29.48,10.0,Calm,Calm,-,N/A,,Clear,0,2012-10-17 05:15:00
12:35 AM,55.4,44.6,67,29.45,10.0,SSE,8.1,-,N/A,,Clear,160,2012-10-17 05:35:00
12:55 AM,55.4,44.6,67,29.45,10.0,Calm,Calm,-,N/A,,Clear,0,2012-10-17 05:55:00
1:15 AM,55.4,44.6,67,29.44,10.0,Calm,Calm,-,N/A,,Clear,0,2012-10-17 06:15:00
1:35 AM,55.4,44.6,67,29.43,10.0,Calm,Calm,-,N/A,,Clear,0,2012-10-17 06:35:00
1:55 AM,55.4,46.4,72,29.44,10.0,South,3.5,-,N/A,,Clear,170,2012-10-17 06:55:00
2:15 AM,53.6,46.4,77,29.44,10.0,ESE,4.6,-,N/A,,Clear,110,2012-10-17 07:15:00
2:35 AM,55.4,46.4,72,29.45,10.0,Calm,Calm,-,N/A,,Clear,0,2012-10-17 07:35:00
2:55 AM,53.6,46.4,77,29.46,10.0,NW,5.8,-,N/A,,Clear,310,2012-10-17 07:55:00
3:15 AM,55.4,46.4,72,29.49,10.0,NNW,13.8,23.0,N/A,,Partly Cloudy,330,2012-10-17 08:15:00
3:35 AM,62.6,46.4,55,29.48,10.0,NNW,10.4,-,N/A,,Scattered Clouds,330,2012-10-17 08:35:00
3:55 AM,62.6,44.6,52,29.49,10.0,NNW,16.1,20.7,N/A,,Scattered Clouds,330,2012-10-17 08:55:00
4:15 AM,62.6,44.6,52,29.49,10.0,NNW,17.3,21.9,N/A,,Clear,330,2012-10-17 09:15:00
4:35 AM,64.4,42.8,45,29.49,10.0,NNW,17.3,-,N/A,,Clear,330,2012-10-17 09:35:00
4:55 AM,64.4,42.8,45,29.48,10.0,NNW,15.0,23.0,N/A,,Clear,340,2012-10-17 09:55:00
5:15 AM,64.4,42.8,45,29.49,10.0,NW,12.7,-,N/A,,Clear,320,2012-10-17 10:15:00
5:35 AM,64.4,41.0,42,29.49,10.0,NNW,18.4,25.3,N/A,,Scattered Clouds,330,2012-10-17 10:35:00
5:55 AM,64.4,42.8,45,29.49,10.0,NW,20.7,35.7,N/A,,Partly Cloudy,320,2012-10-17 10:55:00
6:15 AM,62.6,44.6,52,29.51,10.0,NNW,26.5,31.1,N/A,,Partly Cloudy,340,2012-10-17 11:15:00
6:35 AM,60.8,44.6,55,29.50,10.0,North,18.4,31.1,N/A,,Mostly Cloudy,350,2012-10-17 11:35:00
6:55 AM,60.8,44.6,55,29.54,10.0,NNW,23.0,31.1,N/A,,Mostly Cloudy,330,2012-10-17 11:55:00
7:15 AM,59.0,42.8,55,29.56,10.0,NNW,25.3,33.4,N/A,,Clear,330,2012-10-17 12:15:00
7:35 AM,57.2,41.0,55,29.57,10.0,NNW,20.7,27.6,N/A,,Clear,330,2012-10-17 12:35:00
7:55 AM,57.2,41.0,55,29.59,10.0,NNW,21.9,-,N/A,,Clear,330,2012-10-17 12:55:00
8:15 AM,57.2,41.0,55,29.61,10.0,NNW,23.0,28.8,N/A,,Clear,330,2012-10-17 13:15:00
8:35 AM,57.2,41.0,55,29.63,10.0,NW,17.3,25.3,N/A,,Clear,320,2012-10-17 13:35:00
8:55 AM,57.2,41.0,55,29.64,10.0,NW,19.6,25.3,N/A,,Clear,320,2012-10-17 13:55:00
9:15 AM,57.2,39.2,51,29.65,10.0,NNW,21.9,29.9,N/A,,Clear,330,2012-10-17 14:15:00
9:35 AM,57.2,37.4,48,29.66,10.0,NW,19.6,26.5,N/A,,Clear,320,2012-10-17 14:35:00
9:55 AM,57.2,37.4,48,29.67,10.0,NNW,21.9,27.6,N/A,,Clear,330,2012-10-17 14:55:00
10:15 AM,57.2,37.4,48,29.67,10.0,NNW,23.0,26.5,N/A,,Clear,340,2012-10-17 15:15:00
10:35 AM,60.8,35.6,39,29.68,10.0,NNW,24.2,31.1,N/A,,Clear,330,2012-10-17 15:35:00
10:55 AM,62.6,35.6,37,29.69,10.0,NNW,29.9,35.7,N/A,,Clear,340,2012-10-17 15:55:00
11:15 AM,62.6,33.8,34,29.68,10.0,NNW,26.5,33.4,N/A,,Clear,340,2012-10-17 16:15:00
11:55 AM,64.4,30.2,28,29.68,10.0,NNW,26.5,33.4,N/A,,Clear,340,2012-10-17 16:55:00
12:15 PM,64.4,30.2,28,29.69,10.0,NNW,29.9,35.7,N/A,,Clear,340,2012-10-17 17:15:00
12:35 PM,64.4,30.2,28,29.70,10.0,NNW,25.3,32.2,N/A,,Clear,330,2012-10-17 17:35:00
12:55 PM,64.4,28.4,26,29.70,10.0,NNW,25.3,33.4,N/A,,Clear,330,2012-10-17 17:55:00
1:15 PM,64.4,28.4,26,29.70,10.0,NW,27.6,34.5,N/A,,Clear,320,2012-10-17 18:15:00
1:35 PM,64.4,28.4,26,29.70,10.0,NW,26.5,33.4,N/A,,Clear,320,2012-10-17 18:35:00
1:55 PM,64.4,28.4,26,29.70,10.0,NW,25.3,34.5,N/A,,Clear,320,2012-10-17 18:55:00
2:15 PM,62.6,26.6,26,29.70,10.0,NW,24.2,31.1,N/A,,Mostly Cloudy,310,2012-10-17 19:15:00
2:35 PM,62.6,26.6,26,29.70,10.0,NW,24.2,32.2,N/A,,Partly Cloudy,320,2012-10-17 19:35:00
2:55 PM,62.6,26.6,26,29.70,10.0,NW,26.5,34.5,N/A,,Clear,310,2012-10-17 19:55:00
3:15 PM,64.4,26.6,24,29.71,10.0,NNW,20.7,31.1,N/A,,Clear,330,2012-10-17 20:15:00
3:35 PM,64.4,26.6,24,29.70,10.0,NW,23.0,32.2,N/A,,Scattered Clouds,320,2012-10-17 20:35:00
3:55 PM,62.6,23.0,22,29.72,10.0,NW,20.7,33.4,N/A,,Scattered Clouds,320,2012-10-17 20:55:00
4:15 PM,62.6,21.2,20,29.72,10.0,NW,25.3,36.8,N/A,,Mostly Cloudy,320,2012-10-17 21:15:00
4:35 PM,62.6,21.2,20,29.73,10.0,NW,25.3,32.2,N/A,,Scattered Clouds,320,2012-10-17 21:35:00
4:55 PM,62.6,21.2,20,29.74,10.0,NW,28.8,40.3,N/A,,Partly Cloudy,320,2012-10-17 21:55:00
5:15 PM,62.6,21.2,20,29.74,10.0,NW,21.9,34.5,N/A,,Clear,310,2012-10-17 22:15:00
5:35 PM,60.8,19.4,20,29.75,10.0,NW,18.4,32.2,N/A,,Clear,320,2012-10-17 22:35:00
5:55 PM,60.8,19.4,20,29.76,10.0,NW,17.3,32.2,N/A,,Clear,320,2012-10-17 22:55:00
6:15 PM,60.8,19.4,20,29.76,10.0,NW,18.4,25.3,N/A,,Partly Cloudy,320,2012-10-17 23:15:00
6:35 PM,59.0,19.4,22,29.76,10.0,NNW,20.7,31.1,N/A,,Partly Cloudy,330,2012-10-17 23:35:00
6:55 PM,57.2,17.6,21,29.77,10.0,NW,18.4,25.3,N/A,,Clear,320,2012-10-17 23:55:00
7:15 PM,57.2,17.6,21,29.78,10.0,NW,16.1,23.0,N/A,,Clear,320,2012-10-18 00:15:00
7:35 PM,55.4,17.6,23,29.79,10.0,NW,12.7,-,N/A,,Clear,320,2012-10-18 00:35:00
7:55 PM,55.4,19.4,25,29.79,10.0,NW,11.5,-,N/A,,Clear,320,2012-10-18 00:55:00
8:15 PM,53.6,19.4,26,29.80,10.0,NNW,9.2,-,N/A,,Clear,330,2012-10-18 01:15:00
8:35 PM,51.8,19.4,28,29.80,10.0,WNW,8.1,-,N/A,,Clear,300,2012-10-18 01:35:00
8:55 PM,46.4,19.4,34,29.80,10.0,West,6.9,-,N/A,,Clear,270,2012-10-18 01:55:00
9:15 PM,44.6,19.4,37,29.80,10.0,West,6.9,-,N/A,,Clear,270,2012-10-18 02:15:00
9:35 PM,42.8,19.4,39,29.81,10.0,WNW,6.9,-,N/A,,Clear,290,2012-10-18 02:35:00
9:55 PM,42.8,21.2,42,29.82,10.0,West,8.1,-,N/A,,Clear,270,2012-10-18 02:55:00
10:15 PM,42.8,21.2,42,29.83,10.0,West,8.1,-,N/A,,Clear,260,2012-10-18 03:15:00
10:35 PM,42.8,21.2,42,29.83,10.0,West,8.1,-,N/A,,Clear,260,2012-10-18 03:35:00
10:55 PM,41.0,21.2,45,29.85,10.0,West,9.2,-,N/A,,Clear,270,2012-10-18 03:55:00
11:15 PM,44.6,23.0,43,29.85,10.0,West,11.5,-,N/A,,Clear,280,2012-10-18 04:15:00
11:35 PM,44.6,21.2,39,29.85,10.0,West,6.9,-,N/A,,Scattered Clouds,280,2012-10-18 04:35:00
11:55 PM,42.8,21.2,42,29.85,10.0,West,6.9,-,N/A,,Scattered Clouds,270,2012-10-18 04:55:00